EW3263 Weather Reports


Display with metric or nautical units.
time (UTC)temp
F
wind
direction
speed
MPH
gust
MPH
rain 1hr
in
rain 24hr
in
rain mn
in
humidity
%
barometer
mb
20260507171505 68 0.0 0.0 0.00 0.00 0.00 63 1022.4
20260507170103 67 0.0 0.0 0.00 0.00 0.00 64 1022.5
20260507164601 66 0.0 0.0 0.00 0.00 0.00 67 1022.6
20260507163049 65 0.0 0.0 0.00 0.00 0.00 69 1022.8
20260507161545 63 0.0 0.0 0.00 0.00 0.00 71 1022.7
20260507160041 63 0.0 0.0 0.00 0.00 0.00 71 1022.7
20260507154540 62 0.0 0.0 0.00 0.00 0.00 72 1022.7
20260507153033 62 0.0 0.0 0.00 0.00 0.00 72 1022.6
20260507151528 62 0.0 0.0 0.00 0.00 0.00 73 1022.5
20260507150026 60 0.0 0.0 0.00 0.00 0.00 74 1022.5
20260507144524 60 0.0 0.0 0.00 0.00 0.00 76 1022.5
20260507143015 58 0.0 0.0 0.00 0.00 0.00 80 1022.5
20260507141510 54 0.0 0.0 0.00 0.00 0.00 88 1022.5
20260507140006 51 0.0 0.0 0.00 0.00 0.00 91 1022.4
20260507134502 50 0.0 0.0 0.00 0.00 0.00 91 1022.5
20260507133132 49 0.0 0.0 0.00 0.00 0.00 90 1022.4
20260507131554 49 0.0 0.0 0.00 0.00 0.00 91 1022.3
20260507130104 49 0.0 0.0 0.00 0.00 0.00 91 1022.2
20260507124544 49 0.0 0.0 0.00 0.00 0.00 89 1022.2
20260507123040 49 0.0 0.0 0.00 0.00 0.00 89 1022.1
20260507121535 49 0.0 0.0 0.00 0.00 0.00 89 1021.9
20260507120033 49 0.0 0.0 0.00 0.00 0.00 89 1021.9
20260507114526 50 0.0 0.0 0.00 0.00 0.00 89 1021.8
20260507113023 50 0.0 0.0 0.00 0.00 0.00 88 1022.0
20260507111517 50 0.0 0.0 0.00 0.00 0.00 89 1022.0
20260507110013 50 0.0 0.0 0.00 0.00 0.00 89 1022.1
20260507104509 50 0.0 0.0 0.00 0.00 0.00 89 1022.1
20260507103006 50 0.0 0.0 0.00 0.00 0.00 88 1022.4
20260507101614 50 0.0 0.0 0.00 0.00 0.00 88 1022.4
20260507094552 51 0.0 0.0 0.00 0.00 0.00 88 1022.6
20260507093049 51 0.0 0.0 0.00 0.00 0.00 88 1022.7
20260507091546 51 0.0 0.0 0.00 0.00 0.00 87 1022.8
20260507090041 51 0.0 0.0 0.00 0.00 0.00 88 1023.0
20260507084536 51 0.0 0.0 0.00 0.00 0.00 87 1023.3
20260507083033 52 0.0 0.0 0.00 0.00 0.00 87 1023.4
20260507081526 52 0.0 0.0 0.00 0.00 0.00 87 1023.4
20260507080023 52 0.0 0.0 0.00 0.00 0.00 87 1023.5
20260507074517 52 0.0 0.0 0.00 0.00 0.00 87 1023.5
20260507073013 53 0.0 0.0 0.00 0.00 0.00 86 1023.5
20260507071508 53 0.0 0.0 0.00 0.00 0.00 84 1023.6
20260507070010 54 0.0 0.0 0.00 0.00 0.00 85 1023.7
20260507064603 54 0.0 0.0 0.00 0.00 0.00 84 1023.9
20260507063105 54 0.0 0.0 0.00 0.00 0.00 84 1024.0
20260507061552 55 0.0 0.0 0.00 0.00 0.00 84 1023.8
20260507060047 55 0.0 0.0 0.00 0.00 0.00 83 1023.9
20260507054542 55 0.0 0.0 0.00 0.00 0.00 83 1023.9
20260507053039 55 0.0 0.0 0.00 0.00 0.00 82 1024.0
20260507051534 56 0.0 0.0 0.00 0.00 0.00 81 1024.0
20260507050032 56 0.0 0.0 0.00 0.00 0.00 80 1023.9
20260507044526 56 0.0 0.0 0.00 0.00 0.00 79 1024.0
20260507043024 57 0.0 0.0 0.00 0.00 0.00 79 1023.9
20260507041517 57 0.0 0.0 0.00 0.00 0.00 78 1023.8
20260507040014 57 0.0 0.0 0.00 0.00 0.00 76 1023.7
20260507034507 58 0.0 0.0 0.00 0.00 0.00 74 1023.5
20260507033003 59 0.0 0.0 0.00 0.00 0.00 73 1023.5
20260507031558 60 0.0 0.0 0.00 0.00 0.00 72 1023.3
20260507030055 60 0.0 0.0 0.00 0.00 0.00 71 1023.3
20260507024603 61 0.0 0.0 0.00 0.00 0.00 68 1023.1
20260507023049 62 0.0 0.0 0.00 0.00 0.00 67 1023.0
20260507021545 63 0.0 0.0 0.00 0.00 0.00 66 1022.9
20260507020055 64 0.0 0.0 0.00 0.00 0.00 64 1022.9
20260507014533 65 0.0 0.0 0.00 0.00 0.00 63 1022.7
20260507013042 65 0.0 0.0 0.00 0.00 0.00 63 1022.6
20260507011524 66 0.0 0.0 0.00 0.00 0.00 62 1022.7
20260507010025 67 0.0 0.0 0.00 0.00 0.00 61 1022.6
20260507004514 67 0.0 0.0 0.00 0.00 0.00 61 1022.6
20260507003010 68 0.0 0.0 0.00 0.00 0.00 61 1022.6
20260507001509 68 0.0 0.0 0.00 0.00 0.00 61 1022.4
20260507000002 69 0.0 0.0 0.00 0.00 0.00 57 1022.3
20260506234556 68 0.0 0.0 0.00 0.00 0.00 59 1022.2
20260506233108 69 0.0 0.0 0.00 0.00 0.00 58 1022.3
20260506231555 69 0.0 0.0 0.00 0.00 0.00 56 1022.3
20260506230048 69 0.0 0.0 0.00 0.00 0.00 57 1022.3
20260506224540 71 0.0 0.0 0.00 0.00 0.00 55 1022.4
20260506223042 71 0.0 0.0 0.00 0.00 0.00 55 1022.5
20260506221530 71 0.0 0.0 0.00 0.00 0.00 53 1022.6
20260506220027 72 0.0 0.0 0.00 0.00 0.00 54 1022.7
20260506214536 73 0.0 0.0 0.00 0.00 0.00 50 1022.7
20260506213020 73 0.0 0.0 0.00 0.00 0.00 49 1022.9
20260506211514 73 0.0 0.0 0.00 0.00 0.00 48 1023.0
20260506210009 73 0.0 0.0 0.00 0.00 0.00 46 1023.1
20260506204505 72 0.0 0.0 0.00 0.00 0.00 47 1023.3
20260506203001 72 0.0 0.0 0.00 0.00 0.00 46 1023.4
20260506201557 71 0.0 0.0 0.00 0.00 0.00 47 1023.6
20260506200052 71 0.0 0.0 0.00 0.00 0.00 49 1023.8
20260506194548 70 0.0 0.0 0.00 0.00 0.00 50 1024.0
20260506193043 69 0.0 0.0 0.00 0.00 0.00 56 1024.1
20260506191541 68 0.0 0.0 0.00 0.00 0.00 54 1024.3
20260506190035 67 0.0 0.0 0.00 0.00 0.00 55 1024.4
20260506184544 66 0.0 0.0 0.00 0.00 0.00 56 1024.6
20260506183036 65 0.0 0.0 0.00 0.00 0.00 59 1024.8
20260506181526 65 0.0 0.0 0.00 0.00 0.00 58 1024.8
20260506180017 63 0.0 0.0 0.00 0.00 0.00 61 1024.9
20260506174512 63 0.0 0.0 0.00 0.01 0.00 62 1025.1
20260506173007 62 0.0 0.0 0.00 0.01 0.00 61 1025.2